Weather History for VIJP - March, 2013

Change the Weather History Date:

Monday, March 18, 2013

  Actual Average Record
Temperature  
Mean Temperature 80 °F -  
Max Temperature 95 °F - - ()
Min Temperature 64 °F - - ()
Cooling Degree Days 14    
Growing Degree Days 30 (Base 50)    
Moisture  
Dew Point 46 °F    
Average Humidity 34    
Maximum Humidity 68    
Minimum Humidity 4    
Precipitation  
Precipitation 0.00 in - - ()
Sea Level Pressure  
Sea Level Pressure 29.90 in    
Wind  
Wind Speed 2 mph ()    
Max Wind Speed 12 mph    
Max Gust Speed -    
Visibility 2.1 miles    
Events      
T = Trace of Precipitation, MM = Missing Value Source: Averaged Metar Reports

Daily Weather History Graph

Daily Weather History Graph

Search for Another Location

Airport or City:

Trip Planner

Search our weather history database for the weather conditions in past years. The results will help you decide how hot, cold, wet, or windy it might be!

Date:

Astronomy

Mar. 18, 2013 Rise Set
Actual Time 6:33 AM IST 6:36 PM IST
Civil Twilight 6:09 AM IST 7:00 PM IST
Nautical Twilight 5:42 AM IST 7:27 PM IST
Astronomical Twilight 5:15 AM IST 7:54 PM IST
Moon 10:41 AM IST (3/18) No Moon Set
Length of Visible Light 12h 50m
Length of Day
12h 03m
Waxing Crescent, 36% of the Moon is Illuminated
Mar 18
Waxing Crescent
Mar 19
First Quarter
Mar 27
Full
Apr 3
Last Quarter
Apr 10
New

Hourly Weather History & Observations

Time (IST) Temp. Dew Point Humidity Pressure Visibility Wind Dir Wind Speed Gust Speed Precip Events Conditions
12:00 AM 75.2 °F 46.4 °F 36% 29.98 in 1.9 mi Variable 1.2 mph - N/A   Haze
1:00 AM 69.8 °F 48.2 °F 46% 29.98 in 1.9 mi Calm Calm - N/A   Haze
2:00 AM 71.6 °F 50.0 °F 46% 29.98 in 1.9 mi Calm Calm - N/A   Haze
3:00 AM 69.8 °F 51.8 °F 53% 29.95 in 1.9 mi Calm Calm - N/A   Haze
4:00 AM 68.0 °F 53.6 °F 60% 29.95 in 1.9 mi Calm Calm - N/A   Haze
5:00 AM 64.4 °F 51.8 °F 64% 29.95 in 1.9 mi Calm Calm - N/A   Haze
5:30 AM 66 °F 53 °F 54% 29.92 in 1 mi Calm Calm - -   Haze
6:00 AM 64.4 °F 53.6 °F 68% 29.95 in 1.9 mi Calm Calm - N/A   Haze
7:00 AM 66.2 °F 53.6 °F 64% 29.98 in 1.9 mi Calm Calm - N/A   Haze
8:00 AM 71.6 °F 53.6 °F 53% 29.98 in 1.9 mi Calm Calm - N/A   Haze
8:30 AM 73 °F 54 °F 42% 29.92 in 1 mi Calm Calm - -   Haze
9:00 AM 77.0 °F 50.0 °F 39% 29.98 in 1.9 mi Variable 2.3 mph - N/A   Haze
10:00 AM 78.8 °F 50.0 °F 36% 29.98 in 1.9 mi SW 8.1 mph - N/A   Haze
11:00 AM 82.4 °F 48.2 °F 30% 29.98 in 2.2 mi SSW 9.2 mph - N/A   Haze
11:30 AM 86 °F 47 °F 16% 29.88 in 1 mi SW 9.2 mph - -   Haze
1:00 PM 87.8 °F 37.4 °F 17% 29.92 in 3.1 mi WNW 11.5 mph - N/A   Haze
2:30 PM 95 °F 29 °F 4% 29.78 in 2 mi WSW 2.3 mph - -   Haze
3:00 PM 89.6 °F 35.6 °F 15% 29.89 in 3.1 mi WNW 11.5 mph - N/A   Haze
4:00 PM 89.6 °F 35.6 °F 15% 29.83 in 3.1 mi Variable 8.1 mph - N/A   Haze
5:00 PM 89.6 °F 35.6 °F 15% 29.83 in 3.1 mi NW 8.1 mph - N/A   Haze
5:30 PM 89.6 °F 37.4 °F 16% 29.83 in 3.1 mi Variable 6.9 mph - N/A   Haze
6:00 PM 87.8 °F 39.2 °F 18% 29.83 in 3.1 mi Variable 6.9 mph - N/A   Haze
6:30 PM 87.8 °F 37.4 °F 17% 29.83 in 3.1 mi Variable 6.9 mph - N/A   Haze
7:00 PM 86.0 °F 39.2 °F 19% 29.83 in 2.2 mi Variable 3.5 mph - N/A   Haze
8:30 PM 79 °F 43 °F 18% 29.80 in 1 mi Calm Calm - -   Haze
9:00 PM 78.8 °F 44.6 °F 30% 29.86 in 1.9 mi Calm Calm - N/A   Haze
11:00 PM 75.2 °F 48.2 °F 38% 29.86 in 1.9 mi Calm Calm - N/A   Haze
11:30 PM 74 °F 49 °F 31% 29.81 in 1 mi Calm Calm - -